Home   Weather   Choloma   Past weeks

Flag for Honduras Past Weather in Choloma, Honduras — Yesterday and Last 2 Weeks

Now
93 °F

Passing clouds.


Feels Like: 107 °F
Forecast: 75 / 88 °F
Wind: 9 mph from South

Location: La Mesa San Pedro Sula

Current Time: Apr 29, 2017 at 9:54:13 am

Latest Report: Apr 29, 2017 at 9:00 am


Visibility: N/A

Pressure: 29.83 "Hg

Humidity: 59%

Dew Point: 77 °F

Location of CholomaLocation

Past Weather in Choloma — Graph

°F

Choloma Temperature Yesterday

Maximum temperature yesterday: 104 °F (at 1:00 pm)
Minimum temperature yesterday: 81 °F (at 1:00 am)
Average temperature yesterday: 90 °F

High & Low Weather Summary for the Past Weeks

 TemperatureHumidityPressure
High104 °F (Apr 26, 2:00 pm)100% (Apr 15, 1:00 am)30.01 "Hg (Apr 15, 1:00 am)
Low70 °F (Apr 16, 6:00 am)29% (Apr 27, 2:00 pm)29.59 "Hg (Apr 26, 3:00 pm)
Average83 °F79%29.85 "Hg
* Reported Apr 14 8:00 am — Apr 29 8:00 am, Choloma, Weather by CustomWeather, © 2017

Note: Actual official high and low records may vary slightly from our data, if they occured in-between our weather recording intervals... More about our weather records

Advertising

Choloma Weather History for the Previous 24 Hours

Scroll right to see more
 ConditionsComfort  
Time TempWeatherWind HumidityBarometerVisibility
8:00 am
Sat, Apr 29
90 °FPassing clouds.5 mph71%29.83 "Hg5 mi
7:00 am82 °FScattered clouds.3 mph89%29.83 "Hg5 mi
6:00 am81 °FPassing clouds.5 mph89%29.80 "HgN/A
5:00 am81 °FPassing clouds.5 mph89%29.80 "HgN/A
4:00 am81 °FPassing clouds.6 mph89%29.77 "HgN/A
3:00 am82 °FPassing clouds.7 mph84%29.77 "HgN/A
2:00 am82 °FPassing clouds.12 mph84%29.77 "HgN/A
1:00 am82 °FPassing clouds.7 mph89%29.77 "HgN/A
12:00 am84 °FPassing clouds.9 mph79%29.80 "HgN/A
11:00 pm
Fri, Apr 28
84 °FPassing clouds.5 mph94%29.80 "HgN/A
10:00 pm84 °FPassing clouds.No wind94%29.77 "HgN/A
9:00 pm86 °FPassing clouds.5 mph89%29.77 "HgN/A
8:00 pm86 °FPassing clouds.10 mph89%29.77 "HgN/A
7:00 pm88 °FPassing clouds.13 mph84%29.74 "Hg5 mi
6:00 pm90 °FHot.No wind41%29.71 "HgN/A
5:00 pm91 °FPartly sunny.14 mph71%29.68 "Hg5 mi
4:00 pm93 °FPartly sunny.16 mph71%29.68 "Hg5 mi
3:00 pm99 °FPartly sunny.18 mph60%29.65 "Hg5 mi
2:00 pm102 °FPartly sunny.12 mph45%29.65 "Hg5 mi
1:00 pm104 °FPartly sunny.9 mph38%29.68 "Hg5 mi
12:00 pm100 °FPartly sunny.7 mph42%29.74 "Hg5 mi
11:00 am99 °FPartly sunny.12 mph44%29.77 "Hg5 mi
10:00 am97 °FPartly sunny.12 mph47%29.77 "Hg5 mi
9:00 am95 °FPartly sunny.9 mph53%29.80 "Hg5 mi
Weather by CustomWeather, © 2017

See weather overviewHow to use our weather pages